Location: Quaker Farms
(41.4276°N, 73.1557°W)
Time: 23:30:12
(UTC+00:00)

Vanguard 1 - Pass Details

Date: 21 June 2021
Orbit: 651 x 3832 km, 34.2° (Epoch: 26 July)

Event Time Altitude Azimuth Distance (km) Brightness Sun altitude
Rises 07:20:40 0° 281° (W) 7,175 14.2 -16.8°
Reaches altitude 10° 07:26:36 10° 275° (W) 5,675 13.6 -16.2°
Maximum altitude 07:39:42 35° 218° (SW) 2,793 11.8 -14.7°
Drops below altitude 10° 07:47:31 10° 156° (SSE) 3,366 12.6 -13.8°
Sets 07:50:05 0° 146° (SE) 4,025 13.1 -13.4°
